#timestamp,LO_Frequency,Hit,StdDev 
1626670815.6,286047000.6,P
1626670835.4,286046998.7,N
1626670855.2,286046998.8,N
1626670875.1,286046998.9,N
1626670876.0,286046998.9,N
1626670895.8,286046998.9,N
1626670915.6,286046999.2,N
1626670935.5,286046998.1,N
1626670955.3,286046999.1,N
1626670975.2,286046998.2,N
1626670995.9,286046999.0,N
1626671015.7,286046998.4,N
1626671035.6,286046999.0,N
1626671055.4,286046999.4,N
1626671075.2,286046998.0,N
1626671095.1,286046997.7,Y
1626671096.0,286046997.7,P
1626671115.8,286046996.6,P
1626671135.7,286046997.0,P
1626671155.5,286046997.0,Y
1626671175.3,286047001.1,P
1626671195.2,286047000.5,N
1626671215.0,286047001.0,N
1626671215.9,286047001.0,N
1626671235.7,286047000.7,N
1626671255.6,286046998.5,N
1626671275.4,286046999.4,N
1626671295.3,286046998.9,N
1626671315.1,286046998.6,N
1626671316.0,286046998.6,N
1626671335.8,286046996.9,N
1626671355.7,286046999.0,N
1626671375.5,286046998.8,N
1626671395.3,286046996.6,N
1626671415.2,286046995.4,Y
1626671435.0,286046997.0,P
1626671435.9,286046997.0,N
1626671455.8,286046996.6,P
1626671475.6,286046997.4,N
1626671495.4,286046996.7,Y
1626671515.3,286046999.8,P
1626671535.1,286047000.4,N
1626671555.8,286047001.0,N
1626671575.7,286047002.4,N
1626671595.5,286047002.3,N
1626671615.4,286047002.0,N
1626671635.2,286047001.9,N
1626671655.0,286047001.4,N
1626671655.9,286047001.4,N
1626671675.8,286047002.2,N
1626671695.6,286047002.5,N
1626671715.5,286047002.4,N
1626671735.3,286046999.9,N
1626671755.1,286047000.1,N
1626671775.9,286047000.1,N
1626671795.7,286047002.6,N
1626671815.5,286046999.9,N
1626671835.4,286047000.0,N
1626671855.2,286047000.6,N
1626671875.1,286046998.2,N
1626671876.0,286046998.2,N
1626671895.8,286046999.7,N
1626671915.7,286047002.3,N
1626671935.5,286047002.7,N
1626671955.3,286046999.8,N
1626671975.2,286047002.5,N
1626671995.0,286047000.4,N
1626671995.9,286047000.4,N
1626672015.8,286047000.2,N
1626672035.6,286046999.9,N
1626672055.4,286046999.9,N
1626672075.3,286047000.3,N
1626672095.1,286047002.5,N
1626672115.9,286047002.3,N
1626672135.7,286047002.8,N
1626672155.5,286047002.8,N
1626672175.4,286046999.7,N
1626672195.2,286046999.8,N
1626672215.1,286047000.2,N
1626672216.0,286047000.2,N
1626672235.8,286047000.3,N
1626672255.6,286047001.0,N
1626672275.5,286047002.8,N
1626672295.3,286047002.7,N
1626672315.2,286047000.1,N
1626672335.9,286047000.5,N
1626672355.7,286047002.3,N
1626672375.6,286047001.6,N
1626672395.4,286047000.1,N
1626672415.2,286046999.7,N
1626672435.1,286047002.4,N
1626672436.0,286047002.4,N
1626672455.8,286047004.3,Y
1626672475.7,286046999.7,P
1626672495.5,286047000.7,N
1626672515.3,286047000.9,N
1626672535.2,286047000.1,N
1626672555.0,286047000.5,N
1626672555.9,286047000.5,N
1626672575.8,286047000.4,N
1626672595.6,286047002.3,Y
1626672615.4,286046999.7,P
1626672635.3,286047001.4,P
1626672655.1,286047005.6,P
1626672675.8,286047004.7,N
1626672695.7,286047007.6,Y
1626672715.5,286047003.0,P
1626672735.4,286047004.1,P
1626672755.2,286047001.5,N
1626672775.7,286047003.7,Y
1626672795.5,286047002.3,P
1626672815.4,286047002.7,P
1626672835.2,286047002.1,P
1626672855.0,286047002.0,Y
1626672855.9,286047002.0,P
1626672875.8,286047001.0,P
1626672895.6,286046998.2,P
1626672915.5,286047000.6,N
1626672935.3,286047000.8,N
1626672955.1,286046998.6,N
1626672975.9,286046999.8,N
1626672995.7,286047000.2,N
1626673015.6,286047001.7,N
1626673035.4,286047004.0,Y
1626673055.2,286047001.9,P
1626673075.1,286047002.7,P
1626673076.0,286047002.7,N
1626673095.8,286047002.3,N
1626673115.6,286047000.4,N
1626673135.5,286047000.5,N
1626673155.3,286046999.7,N
1626673175.2,286047004.3,Y
1626673195.9,286047002.4,P
1626673215.7,286047002.0,P
1626673235.6,286047001.8,P
1626673255.4,286047001.3,Y
1626673275.3,286046999.7,P
1626673295.1,286047001.0,N
1626673296.0,286047001.0,N
1626673315.8,286047000.9,N
1626673335.7,286047000.2,N
1626673355.5,286047000.6,N
1626673375.4,286046998.1,Y
1626673395.2,286046997.5,P
1626673415.0,286046997.0,N
1626673415.9,286046997.0,N
1626673435.8,286046995.8,N
1626673455.6,286046996.2,N
1626673475.5,286046998.0,N
1626673495.3,286046996.6,N
1626673515.1,286046997.7,N
1626673535.9,286046998.0,N
1626673555.7,286046996.4,N
1626673575.5,286046993.3,Y
1626673595.4,286046997.4,P
1626673615.2,286046999.6,P
1626673635.1,286046998.8,N
1626673636.0,286046998.8,N
1626673655.8,286046998.5,N
1626673675.6,286046998.7,N
1626673695.5,286046998.8,N
1626673715.3,286046996.5,Y
1626673735.1,286046999.9,P
1626673755.9,286047000.1,N
1626673775.7,286046999.9,N
1626673795.6,286046998.5,N
1626673815.4,286047002.8,Y
1626673835.2,286047001.6,P
1626673855.1,286047001.9,N
1626673856.0,286047001.9,N
1626673875.8,286047002.2,N
1626673895.6,286047002.1,N
1626673915.5,286047000.9,N
1626673935.3,286047001.0,N
1626673955.2,286047001.1,N
1626673975.9,286046998.9,N
1626673995.7,286047001.0,N
1626674015.6,286046998.5,N
1626674035.4,286047001.1,N
1626674055.3,286046999.0,N
1626674075.1,286046999.0,N
1626674076.0,286046999.0,N
1626674095.8,286046998.6,N
1626674115.7,286047000.2,N
1626674135.5,286047000.8,N
1626674155.3,286046998.3,N
1626674175.2,286046999.6,N
1626674195.0,286046999.3,N
1626674195.9,286046999.3,N
1626674215.8,286046996.6,N
1626674235.6,286046997.7,N
1626674255.4,286046996.2,N
1626674275.3,286046995.1,Y
1626674295.1,286046994.9,P
1626674315.9,286046995.6,N
1626674335.7,286046995.6,N
1626674355.5,286046995.0,N
1626674375.4,286046996.2,N
1626674395.2,286046995.5,N
